Tracking 30157 objects as of 13-Feb-2025
HD Live streaming from Space Station
objects crossing your sky now

STARLINK-4411

Track STARLINK-4411 now!
10-day predictions
STARLINK-4411 is classified as:


NORAD ID: 53202
Int'l Code: 2022-084P
Perigee: 568.4 km
Apogee: 571.9 km
Inclination: 97.7 °
Period: 95.9 minutes
Semi major axis: 6941 km
RCS: Unknown
Launch date: July 22, 2022
Source: United States (US)
Launch site: AIR FORCE WESTERN TEST RANGE (AFWTR)
Your satellite tracking list
Your tracking list is empty




NASA's NSSDC Master Catalog

Two Line Element Set (TLE):
1 53202U 22084P   25043.71286872  .00001384  00000-0  11231-3 0  9990
2 53202  97.6560 107.1206 0002505  54.3575 305.7882 15.01254805141184
Source of the keplerian elements: AFSPC